NOZ303 ENNA-ENGM

Flight info

Callsign NOZ303
Flight time N/A
Altitude 40000
Route BIGSI DCT LUVED DCT KUNUB T399 ABASU DCT AMIMO DCT GUBAV DCT VABOT DCT TUXOT DCT EVNEN DCT BELGU
Aircraft B738/M-SADE3GHIJ1LRWXY/LB1

Departure

Time 2026-05-04 09:10
Airport Lakselv Airport, Banak (ENNA)

Arrival

Time N/A
Airport Oslo-Gardermoen International Airport (ENGM)
Time Latitude Longitude Altitude Speed Heading
2026-05-04 08:40 70.06603 24.98053 27 ft 0 kts 85°
2026-05-04 08:57 70.06599 24.97902 26 ft 0 kts 85°
2026-05-04 09:04 70.06599 24.97903 26 ft 0 kts 85°
2026-05-04 09:04 70.06602 24.97923 27 ft 2 kts 63°
2026-05-04 09:04 70.06622 24.97929 27 ft 5 kts 355°
2026-05-04 09:04 70.06675 24.97889 26 ft 10 kts 314°
2026-05-04 09:05 70.06679 24.97659 25 ft 12 kts 265°
2026-05-04 09:05 70.06689 24.97425 29 ft 12 kts 319°
2026-05-04 09:05 70.06770 24.97383 26 ft 12 kts 355°
2026-05-04 09:05 70.06852 24.97365 26 ft 12 kts 355°
2026-05-04 09:06 70.06931 24.97347 27 ft 11 kts 355°
2026-05-04 09:07 70.07427 24.97230 26 ft 9 kts 355°
2026-05-04 09:08 70.07490 24.97216 23 ft 9 kts 355°
2026-05-04 09:08 70.07552 24.97201 27 ft 10 kts 355°
2026-05-04 09:08 70.07644 24.97180 26 ft 18 kts 355°
2026-05-04 09:08 70.07795 24.97144 23 ft 24 kts 355°
2026-05-04 09:09 70.07961 24.97130 23 ft 23 kts
2026-05-04 09:09 70.08027 24.97108 25 ft 1 kts 281°
2026-05-04 09:09 70.08018 24.97087 25 ft 2 kts 203°
2026-05-04 09:09 70.08013 24.97090 23 ft 0 kts 175°
2026-05-04 09:10 70.07953 24.97105 25 ft 42 kts 175°
2026-05-04 09:10 70.07335 24.97248 28 ft 133 kts 176°
2026-05-04 09:10 70.06300 24.97480 733 ft 154 kts 176°
2026-05-04 09:11 70.05242 24.97674 1929 ft 148 kts 177°
2026-05-04 09:11 70.04205 24.97830 2920 ft 152 kts 180°
2026-05-04 09:11 70.03176 24.97472 3801 ft 149 kts 213°
2026-05-04 09:11 70.02628 24.95026 4701 ft 149 kts 255°
2026-05-04 09:12 70.02383 24.91976 5446 ft 160 kts 255°
2026-05-04 09:12 70.02105 24.88490 5821 ft 192 kts 255°
2026-05-04 09:14 69.99332 24.54062 10112 ft 275 kts 255°
2026-05-04 09:14 69.98862 24.48371 10358 ft 300 kts 255°
2026-05-04 09:14 69.98365 24.42362 11027 ft 308 kts 255°
2026-05-04 09:14 69.97859 24.36269 11919 ft 310 kts 255°
2026-05-04 09:15 69.97350 24.30153 12875 ft 311 kts 255°
2026-05-04 09:15 69.96835 24.23995 13785 ft 314 kts 255°
2026-05-04 09:15 69.96314 24.17796 14631 ft 316 kts 255°
2026-05-04 09:15 69.95786 24.11560 15529 ft 318 kts 255°
2026-05-04 09:17 69.86211 23.66497 21472 ft 348 kts 234°
2026-05-04 09:18 69.84746 23.60861 22124 ft 352 kts 234°
2026-05-04 09:18 69.83262 23.55154 22758 ft 356 kts 234°
2026-05-04 09:18 69.81761 23.49389 23371 ft 361 kts 233°
2026-05-04 09:18 69.80240 23.43563 23875 ft 364 kts 233°
2026-05-04 09:19 69.78702 23.37682 24345 ft 369 kts 233°
2026-05-04 09:19 69.77142 23.31735 24805 ft 373 kts 233°
2026-05-04 09:19 69.75562 23.25725 25263 ft 378 kts 233°
2026-05-04 09:19 69.73961 23.19656 25725 ft 382 kts 233°
2026-05-04 09:20 69.72342 23.13532 26175 ft 386 kts 233°
2026-05-04 09:20 69.70704 23.07355 26605 ft 390 kts 233°
2026-05-04 09:20 69.69048 23.01128 27038 ft 394 kts 233°
2026-05-04 09:20 69.67371 22.94838 27453 ft 398 kts 232°
2026-05-04 09:21 69.65675 22.88498 27870 ft 402 kts 232°
2026-05-04 09:21 69.63962 22.82111 28258 ft 406 kts 232°
2026-05-04 09:21 69.62231 22.75672 28649 ft 410 kts 232°
2026-05-04 09:21 69.60479 22.69172 29034 ft 413 kts 232°
2026-05-04 09:22 69.58735 22.62729 29396 ft 417 kts 232°
2026-05-04 09:22 69.56999 22.56045 29727 ft 420 kts 237°
2026-05-04 09:22 69.55581 22.48703 30014 ft 424 kts 246°
2026-05-04 09:22 69.54466 22.40876 30339 ft 426 kts 247°
2026-05-04 09:23 69.53365 22.32997 30640 ft 428 kts 247°
2026-05-04 09:23 69.52254 22.25087 30921 ft 431 kts 247°
2026-05-04 09:23 69.51123 22.17129 31186 ft 433 kts 247°
2026-05-04 09:23 69.49980 22.09171 31527 ft 434 kts 247°
2026-05-04 09:25 69.41854 21.53980 34051 ft 432 kts 246°
2026-05-04 09:25 69.40675 21.46109 34246 ft 434 kts 246°
2026-05-04 09:26 69.39487 21.38207 34479 ft 435 kts 246°
2026-05-04 09:26 69.38297 21.30318 34758 ft 435 kts 246°
2026-05-04 09:26 69.37102 21.22426 35019 ft 436 kts 246°
2026-05-04 09:26 69.35903 21.14537 35244 ft 437 kts 246°
2026-05-04 09:27 69.34695 21.06629 35492 ft 437 kts 246°
2026-05-04 09:27 69.33389 20.98859 35728 ft 437 kts 239°
2026-05-04 09:27 69.31736 20.91627 35958 ft 438 kts 236°
2026-05-04 09:27 69.30012 20.84517 36186 ft 439 kts 236°
2026-05-04 09:28 69.28278 20.77429 36448 ft 438 kts 236°
2026-05-04 09:28 69.26559 20.70386 36872 ft 434 kts 236°
2026-05-04 09:28 69.24853 20.63367 37112 ft 434 kts 236°
2026-05-04 09:28 69.23145 20.56319 37266 ft 437 kts 236°
2026-05-04 09:29 69.21427 20.49232 37436 ft 439 kts 236°
2026-05-04 09:29 69.19706 20.42141 37680 ft 438 kts 236°
2026-05-04 09:29 69.17988 20.35084 37957 ft 437 kts 236°
2026-05-04 09:29 69.16269 20.28047 38193 ft 437 kts 236°
2026-05-04 09:30 69.14566 20.21099 38357 ft 438 kts 236°
2026-05-04 09:30 69.12835 20.14063 38524 ft 438 kts 236°
2026-05-04 09:30 69.11105 20.07045 38711 ft 438 kts 236°
2026-05-04 09:30 69.09373 20.00043 38876 ft 437 kts 236°
2026-05-04 09:31 69.07635 19.93047 39015 ft 438 kts 235°
2026-05-04 09:31 69.05891 19.86051 39164 ft 438 kts 235°
2026-05-04 09:31 69.04145 19.79077 39355 ft 437 kts 235°
2026-05-04 09:31 69.02408 19.72157 39589 ft 435 kts 235°
2026-05-04 09:32 68.98911 19.58279 39591 ft 439 kts 235°
2026-05-04 09:34 68.84896 19.03504 39568 ft 432 kts 234°
2026-05-04 09:34 68.81391 18.90016 39556 ft 432 kts 234°
2026-05-04 09:35 68.77876 18.76576 39536 ft 432 kts 234°
2026-05-04 09:35 68.74348 18.63169 39536 ft 432 kts 234°
2026-05-04 09:37 68.60116 18.09879 39517 ft 434 kts 233°
2026-05-04 09:38 68.56183 17.97367 39496 ft 435 kts 221°
2026-05-04 09:38 68.51541 17.86738 39534 ft 436 kts 220°
2026-05-04 09:39 68.46883 17.76146 39527 ft 436 kts 221°
2026-05-04 09:39 68.42233 17.65527 39544 ft 437 kts 220°
2026-05-04 09:40 68.37585 17.54916 39537 ft 437 kts 220°
2026-05-04 09:40 68.32927 17.44332 39527 ft 437 kts 220°
2026-05-04 09:42 68.14245 17.02475 39537 ft 436 kts 220°
2026-05-04 09:43 68.09563 16.92128 39538 ft 436 kts 220°
2026-05-04 09:43 68.04878 16.81830 39538 ft 436 kts 220°
2026-05-04 09:44 68.00186 16.71572 39530 ft 436 kts 220°
2026-05-04 09:46 67.80473 16.34775 39544 ft 435 kts 207°
2026-05-04 09:46 67.75015 16.27848 39552 ft 435 kts 207°
2026-05-04 09:47 67.69571 16.20898 39549 ft 434 kts 208°
2026-05-04 09:49 67.47869 15.93318 39555 ft 433 kts 207°
2026-05-04 09:51 67.28875 15.69629 39569 ft 432 kts 207°
2026-05-04 09:51 67.24325 15.64016 39563 ft 433 kts 207°
2026-05-04 09:52 67.18883 15.57334 39557 ft 433 kts 207°
2026-05-04 09:52 67.13472 15.50723 39550 ft 434 kts 207°
2026-05-04 09:53 67.08014 15.44089 39553 ft 434 kts 207°
2026-05-04 09:53 67.02550 15.37480 39557 ft 434 kts 207°
2026-05-04 09:54 66.97074 15.30889 39545 ft 435 kts 207°
2026-05-04 09:54 66.91589 15.24321 39540 ft 435 kts 207°
2026-05-04 09:55 66.86106 15.17790 39530 ft 435 kts 207°
2026-05-04 09:55 66.80623 15.11289 39521 ft 435 kts 207°
2026-05-04 09:56 66.75142 15.04822 39530 ft 434 kts 207°
2026-05-04 09:56 66.69662 14.98389 39532 ft 434 kts 207°
2026-05-04 09:57 66.64178 14.91982 39533 ft 434 kts 207°
2026-05-04 09:57 66.58698 14.85612 39534 ft 434 kts 207°
2026-05-04 09:58 66.53218 14.79272 39521 ft 433 kts 207°
2026-05-04 09:58 66.47740 14.72966 39508 ft 433 kts 207°
2026-05-04 10:00 66.25799 14.48011 39503 ft 433 kts 207°
2026-05-04 10:04 65.87478 14.05551 39498 ft 431 kts 207°
2026-05-04 10:04 65.82006 13.99597 39506 ft 430 kts 206°
2026-05-04 10:05 65.76530 13.93679 39515 ft 430 kts 206°
2026-05-04 10:05 65.71017 13.87997 39517 ft 430 kts 205°
2026-05-04 10:06 65.65530 13.82470 39519 ft 430 kts 205°
2026-05-04 10:06 65.60010 13.76911 39522 ft 429 kts 205°
2026-05-04 10:08 65.40722 13.57584 39524 ft 429 kts 205°
2026-05-04 10:08 65.35216 13.52121 39535 ft 428 kts 205°
2026-05-04 10:09 65.29713 13.46687 39521 ft 427 kts 205°
2026-05-04 10:09 65.24214 13.41280 39533 ft 427 kts 205°
2026-05-04 10:10 65.18714 13.35897 39544 ft 428 kts 205°
2026-05-04 10:10 65.13201 13.30525 39553 ft 429 kts 205°
2026-05-04 10:11 65.07666 13.25155 39563 ft 431 kts 205°
2026-05-04 10:11 65.02106 13.19787 39543 ft 432 kts 205°
2026-05-04 10:12 64.96530 13.14426 39557 ft 433 kts 205°
2026-05-04 10:12 64.90943 13.09080 39577 ft 434 kts 205°
2026-05-04 10:13 64.85336 13.03738 39571 ft 435 kts 205°
2026-05-04 10:13 64.79718 12.98408 39580 ft 435 kts 205°
2026-05-04 10:14 64.74096 12.93098 39588 ft 436 kts 205°
2026-05-04 10:16 64.51220 12.74446 39602 ft 434 kts 202°
2026-05-04 10:16 64.45530 12.69853 39604 ft 433 kts 202°
2026-05-04 10:17 64.39850 12.65287 39613 ft 431 kts 202°
2026-05-04 10:19 64.20038 12.49520 39753 ft 430 kts 202°
2026-05-04 10:19 64.17208 12.47287 39777 ft 430 kts 202°
2026-05-04 10:19 64.11547 12.42835 39803 ft 430 kts 202°
2026-05-04 10:20 64.05884 12.38401 39821 ft 430 kts 202°
2026-05-04 10:20 64.00214 12.33977 39811 ft 431 kts 202°
2026-05-04 10:21 63.97372 12.31773 39631 ft 432 kts 202°
2026-05-04 10:21 63.94514 12.29648 39641 ft 432 kts 201°
2026-05-04 10:21 63.88814 12.25587 39647 ft 433 kts 201°
2026-05-04 10:22 63.80186 12.19491 39651 ft 433 kts 201°
2026-05-04 10:23 63.74430 12.15414 39654 ft 434 kts 201°
2026-05-04 10:25 63.51329 11.99189 39676 ft 435 kts 201°
2026-05-04 10:25 63.45536 11.95164 39691 ft 436 kts 201°
2026-05-04 10:26 63.39774 11.91177 39700 ft 436 kts 201°
2026-05-04 10:26 63.33970 11.87177 39701 ft 437 kts 200°
2026-05-04 10:27 63.28161 11.83192 39701 ft 437 kts 200°
2026-05-04 10:27 63.22350 11.79222 39702 ft 436 kts 200°
2026-05-04 10:28 63.16550 11.75276 39710 ft 436 kts 200°